User: anonymous   Login
Location: Rowland
(34.5359°N, 79.2929°W)
Time: 16:52:31
(UTC+00:00)
Language:

Explorer 7 - Orbit

View from above orbital plane
View from above orbital plane
View from above satellite
View from above satellite

Ground track
Ground track

The orbit data is extracted from the following two-line orbital elements,

1 00022U 59009A   22268.85998007  .00002365  00000-0  18905-3 0  9995
2 00022  50.2821 161.2857 0133692 195.2092 164.4819 14.97457139594670
Epoch (UTC): 25 September 2022 20:38:22
Eccentricity: 0.0133692
inclination: 50.2821°
perigee height: 482 km
apogee height: 668 km
right ascension of ascending node: 161.2857°
argument of perigee: 195.2092°
revolutions per day: 14.97457139
mean anomaly at epoch: 164.4819°
orbit number at epoch: 59467

The dashed part of the orbit path shows where the satellite is in the earth's shadow,  

DLR